Weather in Motol

Belarus     52°18′45″N   25°35′51″E
temp.,
°C
wind,
m/s
gust,
m/s
humid.,
%
clouds,
%
prec.,
mm/h
press.,
hPa
HPBL,
m
16 june, wed
wed1600:00+16n369099 0.1 1016115
03:00+14n379584 0.1 1017129
06:00+14n369716 0.0 1017141
09:00+17n45752 0.0 1018434
12:00+20nnw345934 0.0 1018720
15:00+22nnw55525 0.0 10181217
18:00+21nnw45615 0.0 1018968
21:00+16ne34785 0.0 101950
17 june, thu
thu1700:00+13ne34865 0.0 102045
03:00+11ne33890 0.0 102141
06:00+11ne35880 0.0 102286
09:00+17ene35730 0.0 1023359
12:00+22e34610 0.0 10231057
15:00+24e34532 0.0 10221532
18:00+24ese34610 0.0 10221312
21:00+20e33770 0.0 102341
18 june, fri
fri1800:00+16e48740 0.0 1024122
03:00+14ese36865 0.0 102494
06:00+14ese359431 0.0 1024102
09:00+20ese467940 0.0 1024414
12:00+23ese45640 0.0 1024981
15:00+24ese44573 0.0 10231228
18:00+24e45645 0.0 1022984
21:00+20e35784 0.0 102273
19 june, sat
sat1900:00+17se48825 0.0 1023127
03:00+15se36924 0.0 102393
06:00+15ese35944 0.0 102396
09:00+20se46824 0.0 1023429
12:00+24ese45673 0.0 10221177
15:00+26ese45582 0.0 10211552
18:00+26e45625 0.0 1020903
21:00+20e498134 0.0 1020160
20 june, sun
sun2000:00+18se46810 0.0 102082
03:00+16sse35935 0.0 102170
06:00+16se34949 0.0 102170
09:00+21se45795 0.0 1021486
12:00+24se456463 0.1 10201464
15:00+24ese446758 0.2 10191037
18:00+25ese346335 0.0 10181272
21:00+21e33825 0.3 101848